[[{"header":{"parameterUnit":"m.s-1","parameterCategory":1,"la1":30.2991,"la2":30.254,"lo1":-89.0895,"lo2":-89.0444,"dy":0.0017,"dx":0.0017,"nx":28,"ny":28,"refTime":"2025-08-26T03:00:00:Z","depth":0,"parameterNumber":2,"parameterNumberName":"U-component_of_WINDS"},"data":[0,0,0,0,0,0,0,0,0,0,0,0,0,0,0,0,0,0,0,0,0,0,0,0,0,0,0,0,0,0,0,0,0,0,0,0,0,0,0,0,0,0,0,0,0,0,0,0,0,0,0,0,0,0,0,0,0,0,-2.3573,-2.3574,0,-2.3647,-2.3648,-2.3649,-2.3551,-2.3547,-2.3544,-2.354,-2.362,-2.3625,-2.363,0,0,0,0,0,0,0,0,0,0,0,0,0,-2.335,-2.3354,-2.3573,-2.3574,-2.3575,-2.3647,-2.3648,-2.3649,-2.3551,-2.3547,-2.3543,-2.3539,-2.3618,-2.3624,-2.3631,0,0,0,0,0,0,0,0,0,0,0,0,0,-2.3438,-2.3356,-2.3573,-2.3535,-2.3532,-2.3647,-2.3648,-2.3649,-2.3552,-2.3547,-2.3542,-2.3537,-2.3616,-2.3624,-2.3632,-2.3788,0,0,-2.3656,-2.366,0,0,0,0,0,0,0,0,-2.3433,-2.3446,-2.354,-2.3538,-2.3535,-2.3584,-2.3598,-2.3696,-2.3554,-2.3545,-2.354,-2.3534,-2.3612,-2.362,-2.3646,-2.3792,-2.3795,-2.3657,-2.3662,-2.3665,-2.3668,0,0,0,0,0,0,0,-2.3427,-2.3442,-2.3602,-2.3541,-2.3538,-2.3515,-2.3521,-2.3616,-2.3608,-2.3545,-2.3538,-2.3548,-2.361,-2.3638,-2.3647,-2.3796,-2.3657,-2.3664,-2.3669,-2.3672,-2.4074,-2.4079,0,0,0,0,0,0,-2.3425,-2.3438,-2.36,-2.3605,-2.347,-2.3523,-2.353,-2.3574,-2.3606,-2.3606,-2.3553,-2.3543,-2.3627,-2.3638,-2.365,-2.3835,-2.3665,-2.3673,-2.3678,-2.4068,-2.4075,-2.4081,0,0,0,0,0,0,-2.342,-2.344,-2.3597,-2.3519,-2.3537,-2.3533,-2.3582,-2.3578,-2.3606,-2.3612,-2.361,-2.3583,-2.3623,-2.3638,-2.3754,-2.3837,-2.3677,-2.3684,-2.4061,-2.407,-2.4078,-2.4208,0,0,0,0,0,0,-2.3414,-2.3439,-2.3498,-2.3521,-2.3542,-2.37,-2.3587,-2.3583,-2.362,-2.3609,-2.364,-2.364,-2.362,-2.3742,-2.3762,-2.3845,-2.369,-2.4054,-2.4065,-2.4076,-2.4196,-2.422,-2.424,0,0,0,0,0,-2.3407,-2.3533,-2.3502,-2.3522,-2.3616,-2.3705,-2.3717,-2.3691,-2.3627,-2.3687,-2.369,-2.3639,-2.3824,-2.3755,-2.3777,-2.3863,-2.4049,-2.4062,-2.4075,-2.4186,-2.4215,-2.424,0,0,0,0,0,0,-2.3521,-2.3535,-2.3501,-2.3638,-2.3671,-2.3688,-2.3763,-2.3722,-2.3775,-2.3762,-2.3728,-2.3736,-2.386,-2.3873,-2.3796,-2.4016,-2.3926,-2.3944,-2.4004,-2.4031,-2.4053,-2.4048,-2.3697,0,0,0,0,0,-2.3562,-2.3633,-2.3641,-2.3761,-2.3779,-2.3769,-2.3807,-2.3783,-2.3817,-2.3831,-2.3842,-2.3877,-2.3943,-2.3987,-2.4048,-2.4197,-2.4202,-2.4267,-2.4289,-2.4307,-2.4323,-2.4403,-2.4431,-2.4124,-2.4124,-2.4124,0,0,-2.3648,-2.3664,-2.3711,-2.3785,-2.3808,-2.3882,-2.3781,-2.3865,-2.392,-2.3843,-2.3954,-2.3963,-2.4,-2.4133,-2.4192,-2.4148,-2.4409,-2.4323,-2.4338,-2.4344,-2.4419,-2.4448,-2.4474,-2.4133,-2.4132,-2.413,0,0,-2.3843,-2.3862,-2.3964,-2.3988,-2.4023,-2.4015,-2.404,-2.4063,-2.4066,-2.4176,-2.412,-2.4185,-2.4299,-2.4328,-2.4357,-2.4561,-2.4516,-2.4582,-2.4697,-2.4775,-2.4799,-2.4821,-2.4894,-2.4921,-2.4598,-2.4598,-2.4598,0,-2.3946,-2.4055,-2.4022,-2.4109,-2.4143,-2.4075,-2.4179,-2.4204,-2.4259,-2.4284,-2.4232,-2.4374,-2.4394,-2.4532,-2.4582,-2.4608,-2.4635,-2.4579,-2.4798,-2.4819,-2.4839,-2.4909,-2.4936,-2.4606,-2.4605,-2.4604,-2.4603,0,-2.418,-2.4257,-2.4335,-2.4387,-2.443,-2.4525,-2.4507,-2.4554,-2.4527,-2.4524,-2.4636,-2.4657,-2.4721,-2.4752,-2.4727,-2.4888,-2.4859,-2.4803,-2.4713,-2.4877,-2.4942,-2.4968,-2.4617,-2.4614,-2.4612,-2.461,0,0,-2.4451,-2.4482,-2.4512,-2.4535,-2.4568,-2.4627,-2.4718,-2.4779,-2.4821,-2.486,-2.4937,-2.5034,-2.4983,-2.5016,-2.4993,-2.5061,-2.5222,-2.4997,-2.4998,-2.5039,-2.5401,-2.5443,-2.5475,-2.5191,-2.5196,-2.52,-2.5398,0,-2.4647,-2.4804,-2.4777,-2.4931,-2.5001,-2.4937,-2.5017,-2.5046,-2.5046,-2.5106,-2.5105,-2.5175,-2.5102,-2.5121,-2.5186,-2.5189,-2.5294,-2.5174,-2.5264,-2.5267,-2.5258,-2.5508,-2.5554,-2.574,-2.5423,-2.5427,-2.5431,0,-2.4896,-2.4943,-2.5104,-2.5125,-2.5153,-2.5226,-2.5279,-2.5337,-2.5369,-2.5363,-2.54,-2.5364,-2.5456,-2.5362,-2.5489,-2.5407,-2.5442,-2.5449,-2.5455,-2.5464,-2.536,-2.5525,-2.5798,-2.5827,-2.547,-2.5467,-2.5464,0,-2.5079,-2.5182,-2.5291,-2.5313,-2.534,-2.5392,-2.5406,-2.5432,-2.547,-2.5517,-2.5542,-2.5599,-2.5631,-2.5676,-2.5657,-2.559,-2.5787,-2.5692,-2.5786,-2.5787,-2.5833,-2.583,-2.6116,-2.5853,-2.5852,-2.5852,-2.5851,0,-2.5301,-2.5402,-2.5374,-2.5442,-2.5553,-2.5519,-2.5631,-2.5637,-2.5661,-2.5729,-2.5676,-2.5741,-2.571,-2.5774,-2.5759,-2.5866,-2.5881,-2.588,-2.5875,-2.5885,-2.5886,-2.5909,-2.5896,-2.5859,-2.5858,-2.5856,-2.5855,0,-2.5525,-2.551,-2.5625,-2.564,-2.5647,-2.5728,-2.5742,-2.5805,-2.5799,-2.5886,-2.5904,-2.5897,-2.5968,-2.5952,-2.6031,-2.602,-2.6156,-2.6134,-2.6145,-2.614,-2.6236,-2.6228,-2.6548,-2.6589,-2.6299,-2.6301,-2.6304,0,-2.5669,-2.5745,-2.5768,-2.5809,-2.5826,-2.5893,-2.5932,-2.5901,-2.5944,-2.5985,-2.6043,-2.611,-2.6161,-2.6278,-2.628,-2.634,-2.632,-2.6428,-2.6329,-2.6337,-2.6323,-2.6319,-2.6327,-2.6449,-2.6452,-2.6455,-2.6457,0,-2.5925,-2.5913,-2.597,-2.6024,-2.6071,-2.6113,-2.6149,-2.6186,-2.6159,-2.6209,-2.628,-2.632,-2.6399,-2.6466,-2.6521,-2.6536,-2.6493,-2.6487,-2.6513,-2.6525,-2.6529,-2.6529,-2.62,-2.6481,-2.6478,-2.6477,-2.6475,-2.6474,-2.6114,-2.6178,-2.6204,-2.6269,-2.6293,-2.6328,-2.6388,-2.6389,-2.6448,-2.651,-2.6488,-2.657,-2.6599,-2.6668,-2.6689,-2.6753,-2.6713,-2.6749,-2.6759,-2.6768,-2.6781,-2.6517,-2.6763,-2.6762,-2.6762,-2.6761,-2.676,0,-2.6368,-2.6381,-2.6441,-2.6493,-2.6544,-2.6497,-2.6534,-2.6581,-2.6653,-2.6683,-2.6734,-2.6816,-2.688,-2.6887,-2.6947,-2.6997,-2.6979,-2.7014,-2.7011,-2.7015,-2.6813,-2.6786,-2.7028,-2.7028,-2.7028,-2.7028,-2.7028,-2.7028,-2.6507,-2.6613,-2.6605,-2.6722,-2.6734,-2.6814,-2.6839,-2.6872,-2.6895,-2.6989,-2.7041,-2.7044,-2.7065,-2.7126,-2.7183,-2.7183,-2.7208,-2.7252,-2.7244,-2.7056,-2.7029,-2.7004,-2.6978,-2.7257,-2.7257,-2.7441,-2.7443,-2.7444]},{"header":{"parameterUnit":"m.s-1","parameterCategory":1,"la1":30.2991,"la2":30.254,"lo1":-89.0895,"lo2":-89.0444,"dy":0.0017,"dx":0.0017,"nx":28,"ny":28,"refTime":"2025-08-26T03:00:00:Z","depth":0,"parameterNumber":3,"parameterNumberName":"V-component_of_WINDS"},"data":[0,0,0,0,0,0,0,0,0,0,0,0,0,0,0,0,0,0,0,0,0,0,0,0,0,0,0,0,0,0,0,0,0,0,0,0,0,0,0,0,0,0,0,0,0,0,0,0,0,0,0,0,0,0,0,0,0,0,-3.6432,-3.6432,0,-3.6473,-3.6473,-3.6474,-3.6428,-3.6427,-3.6425,-3.6423,-3.6463,-3.6465,-3.6468,0,0,0,0,0,0,0,0,0,0,0,0,0,-3.631,-3.6312,-3.6432,-3.6432,-3.6433,-3.6473,-3.6473,-3.6474,-3.6429,-3.6427,-3.6424,-3.6422,-3.6462,-3.6465,-3.6468,0,0,0,0,0,0,0,0,0,0,0,0,0,-3.6358,-3.6313,-3.6432,-3.6415,-3.6414,-3.6473,-3.6474,-3.6474,-3.6429,-3.6426,-3.6424,-3.6421,-3.6461,-3.6465,-3.6469,-3.6545,0,0,-3.6481,-3.6483,0,0,0,0,0,0,0,0,-3.6355,-3.6363,-3.6417,-3.6416,-3.6415,-3.6443,-3.6445,-3.6498,-3.643,-3.6423,-3.6423,-3.642,-3.6458,-3.6462,-3.6475,-3.6547,-3.6549,-3.6481,-3.6484,-3.6485,-3.6487,0,0,0,0,0,0,0,-3.6352,-3.636,-3.6448,-3.6418,-3.6417,-3.6404,-3.6408,-3.6455,-3.6455,-3.6424,-3.642,-3.6426,-3.6457,-3.6472,-3.6476,-3.6549,-3.6481,-3.6485,-3.6487,-3.6489,-3.6683,-3.6686,0,0,0,0,0,0,-3.6351,-3.6358,-3.6447,-3.6449,-3.6378,-3.6409,-3.6413,-3.6437,-3.6454,-3.6454,-3.6428,-3.6424,-3.6466,-3.6471,-3.6477,-3.6566,-3.6485,-3.6489,-3.6491,-3.668,-3.6684,-3.6687,0,0,0,0,0,0,-3.6349,-3.6359,-3.6445,-3.6403,-3.6413,-3.6413,-3.644,-3.6439,-3.6453,-3.6458,-3.6457,-3.6444,-3.6464,-3.6472,-3.6528,-3.6567,-3.6491,-3.6495,-3.6677,-3.6681,-3.6685,-3.6745,0,0,0,0,0,0,-3.6345,-3.6359,-3.6389,-3.6404,-3.6415,-3.6497,-3.6443,-3.6441,-3.6461,-3.6455,-3.6472,-3.6472,-3.6463,-3.6523,-3.6532,-3.6571,-3.6498,-3.6673,-3.6679,-3.6684,-3.674,-3.6751,-3.6761,0,0,0,0,0,-3.6341,-3.6404,-3.6391,-3.6402,-3.6453,-3.6499,-3.6505,-3.6494,-3.6464,-3.6493,-3.6496,-3.6471,-3.6561,-3.6529,-3.6539,-3.658,-3.6671,-3.6677,-3.6683,-3.6735,-3.6749,-3.676,0,0,0,0,0,0,-3.6393,-3.6406,-3.6391,-3.6461,-3.6479,-3.6491,-3.6528,-3.651,-3.6536,-3.653,-3.6515,-3.6519,-3.6578,-3.6585,-3.6548,-3.6653,-3.6611,-3.662,-3.6647,-3.666,-3.667,-3.6666,-3.6501,0,0,0,0,0,-3.6413,-3.645,-3.6459,-3.652,-3.653,-3.6528,-3.6547,-3.6537,-3.6555,-3.6562,-3.6569,-3.6586,-3.6618,-3.664,-3.6669,-3.6741,-3.6743,-3.6774,-3.6784,-3.6793,-3.68,-3.6836,-3.6849,-3.6707,-3.6707,-3.6707,0,0,-3.6454,-3.6466,-3.649,-3.6531,-3.6544,-3.6581,-3.6534,-3.6577,-3.6604,-3.6568,-3.6622,-3.6627,-3.6646,-3.671,-3.6738,-3.6717,-3.684,-3.6801,-3.6807,-3.681,-3.6844,-3.6857,-3.6869,-3.6711,-3.671,-3.671,0,0,-3.6547,-3.6561,-3.6612,-3.6626,-3.6646,-3.6644,-3.6656,-3.6671,-3.6673,-3.6727,-3.6701,-3.6732,-3.6788,-3.6802,-3.6816,-3.6913,-3.6891,-3.6923,-3.6977,-3.7012,-3.7023,-3.7033,-3.7065,-3.7078,-3.6931,-3.6931,-3.6931,0,-3.6595,-3.6652,-3.664,-3.6684,-3.6702,-3.6672,-3.6723,-3.6737,-3.6765,-3.6777,-3.6754,-3.6822,-3.6833,-3.6898,-3.6922,-3.6935,-3.6947,-3.6921,-3.7023,-3.7032,-3.7041,-3.7072,-3.7085,-3.6934,-3.6934,-3.6934,-3.6933,0,-3.6709,-3.6748,-3.6787,-3.6816,-3.6838,-3.6885,-3.6879,-3.6902,-3.689,-3.689,-3.6944,-3.6955,-3.6986,-3.7001,-3.699,-3.7065,-3.7051,-3.7025,-3.6982,-3.7059,-3.7087,-3.7099,-3.694,-3.6938,-3.6937,-3.6936,0,0,-3.6836,-3.6857,-3.6871,-3.6883,-3.6903,-3.6932,-3.6977,-3.7008,-3.7027,-3.7048,-3.7083,-3.7131,-3.7107,-3.7123,-3.7113,-3.7145,-3.7218,-3.7115,-3.7115,-3.7132,-3.7298,-3.7316,-3.733,-3.7204,-3.7206,-3.7208,-3.7296,0,-3.6928,-3.7006,-3.6997,-3.7071,-3.7106,-3.7078,-3.7117,-3.7132,-3.7133,-3.7162,-3.7162,-3.7195,-3.7163,-3.7172,-3.7202,-3.7203,-3.7251,-3.7197,-3.7235,-3.7237,-3.723,-3.7345,-3.7364,-3.7447,-3.7307,-3.7309,-3.7311,0,-3.7046,-3.7071,-3.7149,-3.7161,-3.7175,-3.7211,-3.7237,-3.7265,-3.7281,-3.728,-3.7297,-3.7281,-3.7324,-3.7281,-3.7339,-3.7303,-3.7318,-3.7321,-3.7324,-3.7325,-3.7277,-3.7348,-3.7473,-3.7485,-3.7329,-3.7327,-3.7326,0,-3.7128,-3.7181,-3.7234,-3.7245,-3.7262,-3.7287,-3.7295,-3.7308,-3.7327,-3.7349,-3.7361,-3.7388,-3.7403,-3.7423,-3.7414,-3.7385,-3.7473,-3.743,-3.7471,-3.7472,-3.749,-3.7489,-3.7617,-3.7503,-3.7503,-3.7503,-3.7503,0,-3.7231,-3.7279,-3.7271,-3.7303,-3.7356,-3.7343,-3.7395,-3.74,-3.7412,-3.7443,-3.7421,-3.7451,-3.7438,-3.7467,-3.746,-3.7508,-3.7515,-3.7514,-3.7511,-3.7515,-3.7514,-3.7523,-3.7516,-3.7506,-3.7505,-3.7505,-3.7504,0,-3.7331,-3.7328,-3.7383,-3.7394,-3.7398,-3.7436,-3.7445,-3.7474,-3.7473,-3.7513,-3.7522,-3.752,-3.7552,-3.7546,-3.7581,-3.7577,-3.7636,-3.7627,-3.763,-3.7627,-3.7668,-3.7664,-3.7805,-3.7822,-3.7699,-3.77,-3.7702,0,-3.7396,-3.7432,-3.7447,-3.7467,-3.7476,-3.7509,-3.7527,-3.7516,-3.7536,-3.7556,-3.7583,-3.7613,-3.7637,-3.769,-3.7691,-3.7717,-3.7707,-3.7755,-3.7711,-3.7713,-3.7705,-3.7703,-3.7705,-3.7763,-3.7765,-3.7766,-3.7767,0,-3.751,-3.7507,-3.7534,-3.7562,-3.7584,-3.7605,-3.7623,-3.7641,-3.7631,-3.7654,-3.7687,-3.7705,-3.7741,-3.7771,-3.7796,-3.7802,-3.7782,-3.7781,-3.7792,-3.7795,-3.7794,-3.7793,-3.7652,-3.7777,-3.7776,-3.7776,-3.7775,-3.7775,-3.7593,-3.7623,-3.7638,-3.7669,-3.7682,-3.7699,-3.7727,-3.7729,-3.7757,-3.7785,-3.7777,-3.7814,-3.7828,-3.7859,-3.7868,-3.7896,-3.7878,-3.7893,-3.7897,-3.7901,-3.7904,-3.7792,-3.79,-3.79,-3.79,-3.79,-3.7899,0,-3.7704,-3.7712,-3.7741,-3.7768,-3.7792,-3.7772,-3.7791,-3.7812,-3.7845,-3.786,-3.7883,-3.792,-3.7949,-3.7952,-3.7978,-3.8,-3.7991,-3.8007,-3.8004,-3.8005,-3.792,-3.7908,-3.8013,-3.8013,-3.8013,-3.8013,-3.8013,-3.8013,-3.7765,-3.7814,-3.7812,-3.7867,-3.7874,-3.791,-3.7922,-3.7938,-3.7949,-3.7991,-3.8015,-3.8017,-3.8027,-3.8053,-3.8078,-3.8078,-3.8088,-3.8107,-3.8103,-3.8023,-3.8012,-3.8001,-3.7989,-3.8109,-3.811,-3.8185,-3.8186,-3.8187]}]]